Regional Weather Roundup
Issued by NWS Charleston, WV

Home | Current Version | Previous Version | Text Only | Print | Product List | Glossary On
Versions: 1 2 3 4 5 6 7 8 9 10 11 12 13 14 15 16 17 18 19 20 21 22 23 24 25 26 27 28 29 30 31 32 33 34 35 36 37 38 39 40 41 42 43 44 45 46 47 48 49 50
000
ASUS41 KRLX 190910
RWRRLX
Regional Weather Roundup
National Weather Service Charleston WV
400 AM EST TUE FEB 19 2019

Note: "fair" indicates few or no clouds below 12,000 feet with no
significant weather and/or obstructions to visibility.

WVZ003-191000-
Northern Panhandle of West Virginia

CITY           SKY/WX    TMP DP  RH WIND       PRES   REMARKS
WHEELING       FAIR      18  13  80 NE3       30.52R
$$

WVZ009-191000-
Northwest West Virginia

CITY           SKY/WX    TMP DP  RH WIND       PRES   REMARKS
PARKERSBURG    FAIR      23  16  74 S3        30.57R
$$

WVZ006-191000-
Western West Virginia

CITY           SKY/WX    TMP DP  RH WIND       PRES   REMARKS
HUNTINGTON     CLOUDY    30  21  69 N6        30.53F
$$

WVZ015-191000-
West Central West Virginia

CITY           SKY/WX    TMP DP  RH WIND       PRES   REMARKS
CHARLESTON     CLOUDY    30  22  72 VRB3      30.52R
$$

WVZ022-031-191000-
North Central West Virginia

CITY           SKY/WX    TMP DP  RH WIND       PRES   REMARKS
MORGANTOWN     FAIR      20  14  77 N3        30.52R
CLARKSBURG     CLOUDY    27  17  66 N5        30.50R
BUCKHANNON     CLOUDY    25  18  74 NW6       30.48R
$$

WVZ025-035-042-045-191000-
Southern West Virginia

CITY           SKY/WX    TMP DP  RH WIND       PRES   REMARKS
BECKLEY        CLOUDY    26  19  74 NW6       30.42R
LOGAN          FAIR      28  25  86 CALM      30.47F
PINEVILLE      CLOUDY    31  22  67 MISG      30.51F
BLUEFIELD      CLOUDY    24  17  74 W6        30.41R
LEWISBURG      CLOUDY    28  20  71 N3        30.44R
$$

WVZ047-191000-
Northern Mountains of West Virginia

CITY           SKY/WX    TMP DP  RH WIND       PRES   REMARKS
ELKINS         CLOUDY    26  18  71 N3        30.45R
$$

WVZ052-191000-
Eastern Panhandle of West Virginia

CITY           SKY/WX    TMP DP  RH WIND       PRES   REMARKS
MARTINSBURG    FAIR      26  11  52 NW12      30.50R
PETERSBURG     CLOUDY    30  19  64 NW3       30.48R
$$

Southeast Ohio/Northeast Kentucky

CITY           SKY/WX    TMP DP  RH WIND       PRES   REMARKS
ATHENS         FAIR      22  20  92 CALM      30.56R
ASHLAND        MOCLDY    28  22  78 N6        30.57S
$$



USA.gov is the U.S. government's official web portal to all federal, state and local government web resources and services.